Location: Unspecified
(0.0000°N, 0.0000°E)
Time: 03:18:20
(UTC+00:00)

Hubble Space Telescope - Pass Details

Date: 18 November 2019
Orbit: 536 x 540 km, 28.5° (Epoch: 10 November)

Event Time Altitude Azimuth Distance (km) Brightness Sun altitude
Exits shadow 04:36:13 15° 235° (SW) 1,478 2.7 -16.2°
Maximum altitude 04:37:42 18° 208° (SSW) 1,348 2.7 -15.9°
Drops below altitude 10° 04:40:35 10° 164° (SSE) 1,786 3.9 -15.2°
Sets 04:43:24 0° 145° (SE) 2,677 5.3 -14.5°
